Wind_Speed
34 34 33 32 32 31 31 30 30 30 31 32 32 32 31 31 30 30 29 29 29 30 30 30 30 30 30 29 29 30 30 30 31 31 31 31 32 33 33 34 35 35 36 36 36 37 37 37 37 37 37 36 35 33 32 32 32 33 34 35 36 36 37 37 37 37 37 37 38 38 39 40 40 41 42 43 43 44 45 45 46 45 45 45 45 44
33 33 33 31 31 31 32 32 31 32 33 34 34 33 33 32 32 32 31 31 31 31 31 32 32 31 31 31 31 31 31 32 32 32 32 33 34 34 35 36 36 37 37 37 38 38 38 38 38 38 38 38 38 37 36 35 33 32 32 33 34 35 36 37 37 37 37 37 37 38 38 39 40 40 41 42 43 44 45 45 46 46 46 46 46 45
33 33 32 32 32 33 34 34 34 33 34 35 35 34 34 33 33 33 33 33 33 33 33 33 33 33 33 33 32 32 32 32 33 33 34 35 35 36 37 37 38 38 38 38 39 38 38 38 38 38 38 38 38 37 37 36 35 34 33 33 33 34 35 36 37 38 38 39 38 38 38 39 39 40 40 41 42 42 44 44 45 46 46 46 46 46
30 30 32 32 33 33 34 35 35 35 35 35 35 35 34 34 34 35 35 35 35 34 34 33 33 33 33 33 33 33 33 33 33 34 35 35 36 37 38 38 39 39 39 39 39 38 38 38 38 37 37 37 37 36 36 36 35 35 34 33 33 33 34 35 36 38 39 39 40 40 39 39 39 40 40 40 41 42 43 44 45 45 46 47 47 47
28 29 30 31 32 33 35 35 35 36 36 36 36 35 35 35 35 35 35 35 35 34 34 33 33 32 33 33 33 33 33 33 34 34 35 36 37 38 39 39 39 39 39 39 38 38 37 37 37 36 36 36 36 35 35 35 34 34 34 33 33 33 33 34 35 36 37 39 39 40 40 40 40 40 40 40 41 41 42 43 44 45 46 46 47 47
29 29 30 31 31 33 35 35 35 35 35 36 36 35 35 34 35 35 35 34 34 34 34 33 33 32 32 32 33 33 33 33 34 35 36 38 38 39 40 40 40 40 39 39 38 37 37 36 36 36 36 36 36 36 36 35 35 35 34 33 33 32 33 33 34 35 36 37 38 39 39 40 40 40 40 40 41 41 41 42 43 44 45 45 46 47
31 31 30 31 32 33 33 33 33 33 33 34 35 35 34 34 34 34 34 34 33 33 34 34 33 32 32 32 32 33 34 35 36 37 38 39 40 40 40 40 40 40 39 39 38 38 37 37 37 37 37 37 37 37 37 37 37 36 36 35 34 33 33 33 33 33 34 35 36 37 38 38 39 39 39 40 40 41 41 41 42 43 43 44 45 46
32 32 31 31 32 32 32 32 31 31 30 31 33 34 35 35 34 34 33 33 33 33 33 33 33 33 32 32 33 34 36 37 38 39 40 40 40 41 41 41 40 40 39 39 38 38 38 38 38 38 39 39 39 39 39 39 39 38 38 37 36 36 35 34 34 34 34 34 35 35 36 36 36 37 37 38 39 39 40 41 41 42 42 43 44 44
31 31 31 30 29 30 31 32 31 30 29 30 31 32 34 35 35 34 34 33 32 31 31 32 33 34 35 35 35 36 37 38 38 39 40 40 41 41 41 41 40 40 40 39 39 39 40 40 40 41 41 41 41 40 40 40 40 40 40 39 39 38 37 37 36 35 35 35 34 34 34 33 33 33 34 35 36 37 38 39 40 41 41 42 42 43
30 30 30 30 29 28 29 31 32 31 30 30 30 30 31 32 33 34 35 34 33 31 31 32 34 35 36 37 37 36 37 38 39 39 40 40 40 41 41 40 40 40 40 40 40 41 41 42 42 42 42 42 42 42 42 42 41 41 41 41 41 40 40 39 38 37 37 36 35 34 33 32 31 31 31 32 33 34 36 37 38 39 40 41 41 42
29 29 28 29 29 28 28 29 30 31 31 30 30 30 29 28 29 31 34 35 36 35 34 34 34 35 36 37 37 37 37 38 39 40 40 40 40 40 40 40 40 40 40 41 41 42 42 43 43 43 43 43 43 43 43 43 43 42 42 42 42 41 41 40 40 39 38 37 36 34 33 32 32 31 31 32 32 33 34 35 36 37 39 39 40 40
28 28 28 28 28 28 29 30 30 30 30 30 30 30 29 28 28 29 32 35 36 37 37 36 35 35 35 36 37 38 38 38 39 40 40 40 39 39 39 39 39 40 40 41 42 42 43 43 43 44 44 44 44 44 44 44 44 43 43 43 42 42 41 41 40 39 39 38 36 35 34 33 33 33 33 33 33 33 34 34 35 37 38 39 39 39
27 27 28 28 28 29 28 29 30 30 29 28 28 29 30 31 31 31 31 34 35 36 36 37 37 37 36 35 35 36 37 38 38 39 39 39 38 37 37 38 39 39 40 41 42 42 43 43 43 44 44 45 45 45 45 45 44 44 44 43 43 42 42 41 40 40 39 38 38 37 36 35 35 35 36 35 35 35 35 35 36 37 38 40 40 40
27 27 28 28 28 28 28 28 28 29 29 29 29 30 31 32 32 32 33 34 35 35 35 36 37 38 37 35 34 34 34 35 37 37 37 37 36 36 36 37 39 40 40 41 42 43 43 43 43 44 45 45 45 45 45 45 45 44 44 44 44 43 43 42 41 41 40 39 39 39 39 39 39 39 39 38 38 37 37 36 37 37 39 40 41 41
27 27 28 29 29 28 28 28 28 29 30 30 30 31 32 32 32 32 32 34 35 36 35 36 38 39 37 34 32 30 31 32 34 36 37 37 36 36 36 37 40 41 41 42 43 43 43 43 43 44 44 45 45 45 45 44 44 44 44 44 44 44 44 44 43 42 41 41 40 40 40 41 42 42 42 42 41 40 39 39 38 38 39 40 41 41
27 27 28 29 30 30 28 28 29 30 31 31 31 32 32 32 32 32 32 34 35 36 35 36 38 39 37 34 30 27 27 30 32 35 37 39 39 38 36 37 40 42 43 43 43 43 43 43 43 43 43 44 44 44 44 44 44 44 45 45 45 45 45 44 44 44 43 42 41 40 40 41 43 45 45 45 45 44 43 42 40 40 40 40 41 42
28 28 28 29 30 30 30 29 30 30 31 32 32 32 31 31 32 33 33 34 35 35 35 35 36 36 36 36 33 28 26 28 32 36 38 41 41 40 37 38 40 42 44 44 43 43 42 42 42 42 43 43 43 43 43 44 44 44 45 45 45 45 45 45 45 44 44 43 42 41 40 40 41 44 46 47 48 47 46 45 44 42 41 41 42 43
29 29 29 30 31 31 31 31 31 32 32 32 32 32 32 32 33 33 34 35 35 35 36 36 35 35 35 35 35 32 30 31 34 37 40 42 43 42 39 38 40 42 43 44 44 43 42 41 41 42 42 42 42 42 43 43 43 44 44 44 45 45 45 45 45 44 44 43 43 41 40 39 39 41 44 46 48 49 49 49 47 45 44 43 43 44
30 30 30 31 33 33 33 33 32 31 31 31 32 33 34 35 35 35 35 35 36 35 35 35 36 37 37 37 38 37 34 33 35 38 41 44 45 44 42 40 40 41 42 43 42 41 40 40 41 42 42 42 42 42 42 42 43 43 43 43 44 44 44 44 44 44 44 43 43 42 41 40 39 39 40 43 45 48 50 50 50 48 47 46 46 46
32 32 32 33 33 34 35 34 32 31 32 33 34 36 37 37 36 36 36 35 35 35 35 36 37 38 38 40 41 40 37 36 38 40 43 45 47 45 42 39 39 40 41 42 41 40 39 40 41 41 42 42 41 41 41 41 41 41 42 42 43 43 44 44 44 44 43 43 43 43 42 41 40 39 39 40 41 43 46 48 49 49 48 48 48 48
33 34 34 33 33 34 35 36 34 33 34 35 36 38 39 39 37 37 36 36 36 36 37 37 39 40 40 41 42 43 42 41 42 43 44 45 45 44 41 38 37 39 41 42 42 40 39 39 40 40 41 40 40 40 40 40 40 40 41 41 42 42 43 43 43 43 43 43 43 43 43 42 42 41 40 39 39 40 41 43 45 46 47 47 48 48
32 33 33 32 32 33 34 36 36 35 35 36 36 38 39 39 39 39 38 39 39 39 40 41 42 43 44 45 47 47 45 42 41 41 42 43 44 44 41 37 36 38 40 42 42 40 39 38 39 40 40 40 40 40 40 40 40 40 41 41 41 42 42 43 43 43 43 43 43 43 43 43 43 42 41 40 39 39 39 40 40 42 43 44 45 47
31 32 32 32 33 34 35 35 36 35 35 35 36 38 39 40 42 43 42 43 44 44 44 45 46 48 48 48 48 46 43 39 37 36 38 39 42 43 40 37 37 38 41 42 42 40 39 40 40 40 40 40 40 40 40 40 40 40 40 41 41 41 42 42 43 43 43 43 43 43 43 44 44 43 42 41 40 40 39 39 39 40 40 40 41 43
29 31 32 32 33 33 33 33 34 34 35 36 37 39 40 42 43 45 45 45 45 46 46 48 49 50 48 45 43 41 38 34 32 32 34 37 40 42 40 38 37 39 42 42 41 40 40 41 41 40 40 40 40 40 40 39 39 39 40 40 40 41 41 41 42 42 42 42 43 43 43 44 44 43 43 42 41 41 40 40 40 40 39 39 39 40
29 30 31 31 32 32 32 32 33 34 35 36 37 38 39 40 42 43 43 43 43 43 44 44 45 44 42 40 38 37 35 31 29 30 32 35 39 41 41 38 37 39 42 43 41 40 40 41 42 41 40 40 40 40 39 39 39 39 39 40 40 40 40 41 41 41 41 41 42 42 42 43 43 43 43 42 42 41 41 41 40 40 39 39 39 39
28 29 30 31 31 31 32 32 32 32 33 33 34 35 36 38 39 40 41 41 40 39 39 38 38 39 38 37 36 36 34 31 29 28 30 34 38 41 41 39 37 38 40 42 41 40 40 41 41 40 39 39 39 39 39 39 39 39 39 39 39 40 40 40 40 40 40 40 40 41 41 41 41 42 42 42 42 42 41 41 40 40 39 39 39 39
29 30 30 31 31 32 32 32 32 31 31 30 30 31 32 33 36 37 38 37 36 36 36 36 36 37 37 36 36 35 35 32 30 29 30 34 37 39 39 38 37 37 38 39 40 40 40 40 41 40 39 39 39 39 39 38 38 38 38 38 38 38 39 39 39 39 39 39 39 40 40 40 40 40 41 41 41 42 42 41 41 40 39 39 39 39
31 31 32 32 33 33 33 32 32 31 30 29 27 26 27 28 32 34 35 35 35 34 34 35 35 36 37 37 36 36 36 34 32 31 30 32 34 36 37 37 36 36 37 40 41 42 41 41 41 40 39 39 38 37 37 37 37 36 36 36 37 37 37 37 38 38 38 38 39 39 39 39 39 40 40 41 41 42 42 41 40 39 38 38 39 40
32 32 33 33 34 34 33 32 31 30 29 28 27 25 25 26 29 32 34 33 33 34 35 36 35 35 36 38 39 38 37 35 32 29 28 29 32 35 37 36 36 37 38 40 42 43 42 40 38 37 37 37 37 36 36 35 35 35 35 36 36 36 36 36 37 37 38 38 39 39 39 39 39 39 40 40 41 41 40 40 39 38 38 38 39 39
34 35 35 35 34 33 32 32 31 30 29 28 27 26 25 25 27 29 31 31 31 33 34 35 35 35 37 38 38 38 37 34 30 27 26 29 33 35 37 37 37 37 37 38 39 40 41 40 37 34 34 35 35 35 35 35 35 36 36 37 37 36 36 36 37 37 37 38 39 39 39 39 39 38 38 38 38 38 37 36 35 36 37 38 38 39
36 36 36 35 34 33 32 31 31 30 30 29 28 27 27 27 27 28 29 29 30 32 34 36 36 36 36 36 35 34 35 35 32 29 29 32 36 38 38 39 39 39 37 36 35 36 38 41 40 36 33 33 35 37 38 37 37 37 37 38 37 37 37 36 36 37 37 38 38 38 39 39 39 38 37 37 36 34 33 31 31 33 35 37 38 39
36 36 35 34 33 32 32 31 31 31 30 30 30 29 28 28 28 28 29 30 30 31 33 35 36 36 36 37 36 36 37 38 37 35 34 36 38 39 39 40 40 40 38 38 37 37 37 41 42 40 36 35 37 39 40 38 37 37 37 37 37 36 36 35 35 35 36 36 37 37 38 38 39 38 38 37 35 33 31 29 29 30 33 36 37 38
34 34 33 32 32 32 31 31 31 31 31 31 30 29 29 29 28 29 29 30 30 31 32 34 36 37 37 38 39 41 41 41 39 37 36 37 39 40 41 41 41 41 41 40 40 40 40 42 43 42 40 38 38 37 38 37 37 37 36 35 35 35 35 34 34 34 35 35 36 36 36 37 38 38 39 38 37 35 32 30 29 30 32 34 36 37
32 32 32 32 32 32 32 31 31 31 30 30 30 30 30 30 30 30 31 31 31 32 33 34 35 37 39 40 40 41 42 41 40 38 37 38 40 42 44 42 42 42 42 41 41 41 42 43 43 42 40 41 40 38 37 37 37 36 35 35 35 35 34 34 33 34 34 35 35 36 36 36 37 38 39 39 39 37 35 33 32 31 32 33 35 37
31 31 31 31 31 31 31 31 31 31 31 30 30 30 31 31 31 32 32 33 33 34 35 35 36 37 39 39 41 43 44 44 42 40 40 40 42 43 44 44 43 42 43 42 42 41 41 42 43 42 41 41 41 40 38 37 36 36 36 35 35 34 34 34 33 33 34 34 35 36 36 36 37 38 39 40 40 39 37 36 35 35 35 36 36 37
30 30 30 30 31 31 31 31 31 32 31 31 31 32 32 32 33 33 33 34 34 35 36 37 37 38 39 40 42 45 46 46 45 44 44 44 45 45 45 46 46 45 44 44 44 43 42 43 44 44 43 41 40 40 39 37 35 34 35 35 35 34 34 34 34 33 33 35 36 36 37 37 38 40 41 41 40 38 37 37 37 38 38 37 37 37
29 30 30 30 30 30 31 31 32 32 32 32 32 33 34 34 35 35 36 37 37 37 38 39 39 39 40 41 43 46 48 49 49 49 48 49 49 49 48 49 49 47 45 46 47 47 46 45 45 44 43 41 40 39 38 37 35 35 36 36 35 35 35 35 35 34 35 36 36 37 37 37 39 40 41 40 39 37 37 37 37 37 37 36 36 36
29 30 30 30 30 30 30 31 32 32 33 34 34 35 36 36 37 38 38 39 39 39 40 41 41 41 42 43 45 47 49 51 51 52 51 51 51 51 50 52 52 49 48 48 47 47 47 45 44 43 42 41 41 41 40 38 37 37 37 37 36 36 37 36 35 35 35 35 36 36 37 37 38 39 40 40 39 37 36 36 36 36 36 35 35 36
29 30 30 30 30 30 31 32 32 33 34 34 35 36 37 38 38 39 39 39 39 40 40 41 43 44 44 45 46 47 49 50 51 51 51 51 51 51 50 52 52 52 51 50 48 47 46 46 45 44 43 43 43 42 41 39 38 38 38 38 38 38 37 35 34 34 34 35 35 36 36 37 37 38 39 40 40 39 38 36 35 35 34 34 35 36
29 29 30 30 30 31 32 32 33 34 35 35 36 37 37 38 39 39 39 39 38 39 40 41 42 43 45 45 46 47 48 48 49 49 49 49 49 49 49 49 50 51 51 50 48 46 46 47 47 46 45 44 43 43 42 41 40 38 38 37 36 36 35 34 33 33 34 35 36 36 37 37 37 37 37 38 39 40 41 40 38 36 34 34 34 36
29 30 31 31 31 31 32 34 35 35 36 36 37 37 37 37 37 37 38 39 39 40 40 41 41 43 45 46 46 46 46 47 47 48 48 48 48 48 48 48 48 49 49 50 49 46 45 45 46 47 45 44 44 44 44 43 41 39 38 38 38 37 37 36 36 36 36 37 37 37 37 37 37 37 37 37 37 39 42 42 41 38 36 35 35 35
29 30 31 31 32 33 34 35 35 35 35 36 36 36 36 37 37 37 38 39 40 40 39 40 41 43 44 44 44 45 45 45 46 46 46 46 45 45 45 45 46 47 47 48 46 45 46 46 45 45 45 44 45 44 44 44 42 40 39 38 38 39 38 38 37 36 35 36 37 37 37 37 37 37 37 36 36 37 39 40 41 39 37 36 35 35
29 30 31 32 33 34 35 36 36 35 35 36 36 36 36 37 38 38 38 39 40 40 41 41 42 42 43 44 45 45 44 44 44 43 43 43 42 42 42 43 43 44 44 44 46 47 47 47 46 45 46 45 44 45 45 44 43 41 39 38 38 37 36 36 35 34 34 34 35 35 36 36 35 36 36 35 35 35 35 37 38 38 37 36 35 35
30 31 32 33 34 35 35 35 35 35 36 36 36 36 37 38 38 39 39 39 40 42 43 42 41 42 43 45 45 44 44 44 43 41 40 40 40 40 40 41 42 43 43 44 45 46 45 46 45 44 43 43 43 43 44 43 42 41 40 39 38 38 37 36 35 35 34 34 35 35 35 35 35 35 35 35 35 34 34 35 36 37 38 37 37 36
30 31 32 33 33 34 35 35 35 35 35 36 36 36 37 38 39 39 40 40 41 41 41 42 42 42 42 42 43 43 43 43 42 40 39 39 39 40 40 41 42 43 43 44 44 45 46 45 44 43 43 43 43 43 43 43 42 41 40 39 38 39 39 39 38 37 36 35 35 36 36 35 35 35 35 36 36 36 35 35 36 37 39 40 40 40
30 31 33 33 33 34 34 35 36 36 36 36 36 37 37 38 39 39 39 40 40 41 42 42 42 41 42 43 44 44 43 43 42 41 40 40 41 41 41 41 42 42 42 43 43 44 44 44 45 45 44 44 44 43 43 42 42 41 40 39 38 38 39 39 39 39 38 38 37 37 37 36 35 35 36 37 37 37 37 37 37 38 40 41 42 43
30 32 33 33 34 34 35 35 35 35 36 36 37 38 38 39 39 39 39 39 40 41 41 42 41 41 42 42 42 42 43 43 43 42 42 43 44 43 41 41 41 41 40 41 42 44 45 45 46 46 44 44 44 44 43 42 41 40 40 39 39 38 38 38 38 38 38 38 38 38 37 35 35 35 36 37 37 37 37 37 38 38 40 41 42 44
30 31 32 33 34 35 35 35 35 35 36 37 39 40 39 40 39 39 40 41 41 41 41 41 41 41 42 42 43 42 42 43 43 43 43 42 43 43 42 42 42 41 41 42 43 43 43 44 44 43 43 44 45 44 43 42 41 40 39 39 39 38 38 37 37 36 36 36 37 37 36 35 35 34 34 35 35 36 36 37 37 38 39 40 42 43
31 32 32 33 34 35 36 36 35 36 36 38 40 41 41 41 40 41 41 41 41 41 41 41 42 42 43 43 42 42 42 43 43 43 44 43 43 43 42 42 42 42 42 42 41 40 40 41 41 41 41 42 43 44 44 44 42 40 40 39 38 38 38 37 36 36 36 36 36 36 36 36 35 34 33 33 34 35 35 36 36 37 38 39 40 41
31 31 31 32 33 34 35 36 36 36 37 38 40 41 41 42 42 42 42 41 41 41 41 41 42 42 43 43 43 43 43 42 43 44 44 44 44 43 43 42 41 41 40 40 38 37 38 38 38 38 37 36 37 39 42 42 42 41 39 38 38 38 38 36 36 36 35 35 35 35 35 35 34 33 33 33 34 35 36 36 37 37 38 37 38 38
30 30 31 32 32 34 35 36 36 37 38 39 40 42 43 43 42 42 42 41 40 40 41 41 42 42 42 43 43 43 43 43 43 44 44 44 44 44 45 43 41 39 38 38 37 36 34 34 34 34 33 31 31 32 35 37 39 39 39 38 37 36 36 36 35 35 34 34 34 33 33 33 33 33 32 32 32 33 34 36 37 37 36 35 35 36
Wind_Direction
296 298 301 302 304 306 307 309 311 313 313 314 316 317 318 317 316 315 315 315 316 316 317 318 319 321 321 322 322 322 322 322 322 322 321 320 320 319 319 318 317 316 315 314 313 312 311 310 309 308 307 305 303 300 295 290 285 282 280 279 280 281 281 281 281 280 279 278 277 276 275 273 271 269 267 265 264 262 261 259 259 258 258 259 259 260
303 304 306 308 309 311 311 313 314 315 316 316 317 318 318 318 317 316 317 317 318 320 321 322 322 323 322 322 322 322 322 322 321 320 320 319 319 318 317 317 316 315 314 313 312 311 310 309 308 307 306 306 305 304 302 300 296 291 286 283 280 280 280 280 281 280 280 279 277 276 275 273 272 270 268 266 265 263 262 261 259 258 258 258 258 259
309 310 310 312 313 313 313 314 315 315 316 316 317 318 319 319 318 318 319 320 321 322 323 323 323 322 321 321 320 320 320 320 319 318 318 317 317 316 315 314 313 312 312 311 310 309 308 307 306 305 304 303 302 302 301 301 300 298 295 290 286 283 280 280 280 280 280 279 278 276 275 273 272 270 269 267 265 264 263 261 260 259 258 258 257 258
310 310 311 312 313 313 313 314 315 315 316 317 318 319 320 320 320 320 321 322 322 323 322 322 320 319 318 318 318 318 318 317 316 315 314 313 313 312 311 310 310 309 309 308 308 307 306 305 304 303 302 302 301 300 299 299 298 298 297 295 292 289 285 283 281 280 280 279 279 278 276 274 273 271 269 267 266 264 263 261 260 259 258 258 257 257
307 307 308 310 310 310 312 313 314 315 317 318 319 320 320 320 320 320 321 321 320 320 319 318 317 315 314 314 314 314 314 313 312 310 309 308 307 306 306 306 306 307 307 307 307 307 306 306 305 304 303 302 301 300 299 298 297 297 296 296 295 293 291 288 285 283 281 281 280 279 278 276 274 272 270 268 266 265 263 261 260 259 259 258 257 256
304 305 307 308 308 308 311 312 314 316 317 318 319 319 319 319 318 318 317 317 316 315 314 313 313 312 311 311 311 310 309 307 306 304 303 303 303 303 304 305 305 306 307 308 308 308 307 307 306 305 305 304 303 301 300 299 298 297 297 296 295 295 294 292 289 287 284 282 281 280 280 278 277 274 272 270 268 265 264 262 260 259 258 258 257 256
305 306 307 307 308 309 311 312 313 315 317 317 318 318 317 316 315 314 313 313 313 312 311 311 311 309 308 307 306 304 303 301 301 300 301 301 302 303 304 305 306 307 307 308 308 308 308 308 307 307 306 305 304 303 302 301 300 299 298 297 296 296 295 294 292 290 288 286 283 282 281 280 278 277 275 272 269 267 265 263 261 260 258 258 257 256
305 307 307 308 309 310 311 311 312 313 315 315 315 314 314 313 312 311 311 311 311 310 310 309 307 305 303 302 301 299 299 299 299 300 301 302 303 304 305 306 306 307 307 308 308 308 308 308 308 307 307 307 306 305 304 303 303 302 300 299 298 297 296 295 295 293 291 289 287 285 283 281 280 278 277 274 272 269 266 264 262 260 259 258 257 257
305 306 308 308 308 309 310 310 310 311 313 312 311 311 311 311 311 311 310 309 308 307 306 305 303 302 301 300 299 299 299 299 300 301 302 302 303 304 305 306 306 306 307 307 307 308 308 308 308 308 307 307 306 306 305 304 303 303 302 301 300 299 298 297 296 295 294 292 290 288 285 283 281 279 278 276 273 270 268 265 263 260 259 258 257 257
306 307 308 309 308 307 307 307 309 310 312 311 309 308 307 308 309 310 309 307 306 305 303 301 300 300 301 301 301 301 301 301 301 301 302 302 303 304 304 305 305 306 306 306 307 307 307 307 307 306 306 306 305 305 304 304 303 302 301 300 299 299 298 297 296 296 294 292 290 288 287 285 283 280 278 276 274 272 269 266 264 261 259 258 256 256
307 307 307 307 307 307 305 305 306 309 311 310 309 308 306 305 306 307 307 306 306 305 304 302 301 300 301 302 303 303 302 302 302 302 303 303 303 304 304 304 305 305 305 305 305 305 304 304 304 304 304 303 303 302 302 302 301 300 300 299 298 297 296 296 295 294 293 291 289 286 285 285 284 281 279 277 275 273 270 268 264 262 259 258 257 257
305 306 305 305 305 306 305 306 307 309 310 310 309 308 307 306 306 304 303 303 304 305 305 304 302 301 301 301 303 303 303 302 302 303 303 304 304 304 304 304 304 304 303 303 302 301 301 301 300 300 300 300 300 300 299 299 299 299 298 298 297 296 295 294 293 292 290 288 285 283 281 282 282 280 278 275 273 272 270 268 265 262 259 258 257 257
304 304 305 304 304 304 305 306 308 308 308 308 306 305 305 306 306 304 301 301 302 304 305 304 303 302 301 301 301 302 302 302 302 303 303 303 303 303 303 303 302 301 300 299 298 297 297 297 297 297 297 297 297 297 298 298 298 298 298 297 297 296 295 294 292 290 288 285 281 278 275 275 275 275 274 272 271 269 268 266 265 263 261 258 256 256
304 304 304 304 304 304 305 306 306 306 305 305 304 304 305 305 305 305 303 302 302 303 304 303 302 302 302 301 301 301 302 302 303 302 302 301 300 301 301 300 299 298 297 296 295 295 295 295 295 295 295 295 295 296 296 297 297 298 298 297 297 296 295 294 293 291 288 285 281 276 271 269 268 269 269 269 269 268 267 265 263 262 261 259 257 256
303 304 304 303 303 303 303 304 304 304 304 304 304 304 304 305 305 304 304 303 303 304 305 303 302 302 301 301 301 302 303 302 302 301 300 299 298 299 299 298 297 297 296 295 294 294 294 293 293 292 293 293 293 294 295 296 296 297 297 297 296 296 295 294 293 292 290 287 283 277 272 267 265 264 265 265 266 267 267 266 264 262 260 259 258 257
302 303 302 302 301 302 302 303 303 302 303 303 303 304 304 304 304 304 303 303 304 305 305 304 304 304 302 302 302 303 304 302 301 300 299 298 298 298 298 297 297 296 295 294 293 293 293 292 291 291 291 291 292 293 294 294 295 295 296 295 295 294 294 293 292 292 290 289 286 281 275 269 265 262 262 262 263 264 265 266 265 264 261 259 258 256
302 301 300 300 300 300 300 301 301 301 301 302 302 302 302 302 302 302 302 302 303 303 303 303 303 303 303 303 303 303 304 302 300 299 299 298 298 298 298 296 295 294 294 293 292 292 292 291 291 290 290 291 291 292 293 293 293 294 294 294 293 293 292 292 291 291 290 289 287 285 280 274 268 263 261 260 259 260 262 264 265 265 264 261 259 256
301 300 300 298 297 298 298 299 299 299 300 301 302 302 301 300 300 301 300 300 301 301 300 300 299 299 299 300 301 302 303 301 300 299 298 297 297 298 298 296 294 293 292 292 292 292 292 291 291 291 291 291 291 291 291 291 291 292 292 292 291 291 291 290 290 289 288 287 286 285 283 280 274 268 263 260 259 258 258 260 262 264 264 263 261 258
298 296 296 294 294 295 295 296 297 298 300 301 302 302 302 301 301 300 300 299 299 298 298 297 296 295 295 294 296 299 302 301 299 299 298 297 297 297 297 296 294 292 291 291 291 292 292 292 291 291 291 291 290 290 290 290 290 290 289 289 289 289 288 288 287 287 286 285 284 284 283 282 279 275 270 265 262 259 258 258 259 260 262 262 261 260
291 290 289 289 291 294 296 296 298 300 301 301 302 301 301 301 301 301 300 300 299 298 297 295 294 293 293 294 296 298 300 300 299 298 296 296 296 296 297 296 295 293 291 291 291 292 292 291 291 291 291 290 290 290 289 289 288 288 288 287 287 287 286 285 285 283 282 281 281 281 281 281 280 279 276 272 268 264 261 259 258 258 259 260 260 259
289 290 293 295 296 297 298 300 302 303 303 303 303 302 301 301 301 301 300 300 299 298 296 294 293 293 293 293 295 296 298 298 297 296 296 295 294 294 296 295 294 293 291 291 291 292 291 291 290 290 290 290 290 289 289 288 287 286 286 285 285 284 283 283 282 281 280 279 278 278 278 279 279 279 278 276 273 270 267 263 260 259 259 259 259 258
295 298 302 304 302 300 299 302 304 304 305 304 303 301 301 301 300 299 299 299 298 297 296 294 293 293 293 293 293 295 297 297 296 295 295 293 292 293 294 295 294 292 291 291 292 292 292 290 290 290 289 289 289 288 288 287 286 286 285 284 283 283 282 281 280 279 279 278 277 276 276 277 278 278 277 276 275 273 271 268 265 263 261 260 259 258
301 302 304 305 303 301 301 302 303 304 304 303 301 300 300 299 299 298 298 298 297 296 295 294 293 293 293 293 294 295 296 296 296 294 292 291 290 292 294 295 294 292 290 291 292 293 292 291 290 289 289 288 288 287 287 286 286 285 285 284 283 283 282 281 280 279 278 277 276 276 275 276 277 277 277 276 275 274 272 271 268 266 264 262 261 259
302 302 302 302 301 300 300 300 301 301 302 300 299 298 298 297 297 297 297 296 296 295 295 295 295 294 294 293 294 294 295 295 294 292 290 288 289 291 293 295 294 292 291 291 292 292 292 291 290 289 288 288 288 288 287 286 286 285 285 284 283 283 282 281 280 279 278 277 276 276 275 275 276 276 276 276 275 274 273 271 270 268 266 264 262 260
300 299 299 299 299 299 298 298 298 298 297 297 296 296 296 295 295 295 294 294 294 294 294 294 294 294 294 295 295 295 295 295 294 291 289 288 289 291 292 293 293 292 291 292 293 293 292 291 290 290 289 289 289 288 288 287 286 285 285 284 283 283 282 281 280 279 278 277 277 276 276 276 276 276 276 275 275 274 273 272 270 268 266 265 263 262
300 299 299 299 299 300 299 298 298 297 296 295 294 294 294 294 294 293 293 293 293 294 295 295 294 294 294 296 296 296 297 298 296 292 290 289 289 291 292 293 292 291 291 292 293 293 292 291 291 291 290 289 289 288 288 287 286 285 284 284 284 283 282 281 280 279 279 278 278 278 277 277 276 276 276 276 275 275 274 272 271 269 267 265 264 263
304 303 303 303 303 303 303 302 301 299 298 296 295 294 294 294 294 294 293 294 295 295 295 295 294 294 295 296 295 296 298 298 296 293 291 290 289 289 291 293 293 292 291 292 293 293 292 291 290 290 289 289 288 288 288 287 287 286 285 284 284 283 282 281 281 280 280 280 280 280 279 278 278 278 277 277 277 276 275 273 271 269 267 265 264 263
308 307 307 306 305 305 304 303 302 302 301 300 300 299 298 295 294 293 293 295 296 296 294 292 292 293 295 296 295 296 297 297 296 295 295 292 288 287 290 293 293 292 292 293 293 293 291 289 289 289 289 289 288 288 288 287 287 286 286 285 284 283 282 282 281 280 280 280 281 281 281 280 280 279 280 280 280 278 276 274 271 268 266 265 264 263
309 308 306 305 305 305 305 304 304 304 305 306 307 306 303 297 293 291 293 296 297 295 293 291 291 291 292 295 296 296 296 296 297 298 298 293 288 287 290 292 292 292 293 294 295 294 291 289 288 288 288 289 289 288 288 288 287 286 286 285 284 283 282 281 280 279 279 279 280 281 281 281 281 281 281 282 282 280 277 273 270 267 265 264 263 263
307 306 306 306 306 307 307 308 308 309 310 311 312 310 307 301 296 294 296 297 296 293 292 291 291 291 292 295 296 296 296 296 298 300 299 294 290 289 292 292 292 292 293 294 296 295 293 291 289 289 289 289 288 287 287 287 287 286 286 285 284 283 282 281 280 279 278 278 278 279 280 281 280 281 281 282 282 280 276 271 267 264 263 263 263 263
304 305 307 308 309 310 311 311 312 313 314 314 314 313 310 306 302 300 299 297 294 292 291 290 290 291 292 293 293 293 293 295 297 300 298 294 291 290 292 292 291 291 292 291 292 292 293 293 292 291 290 288 287 287 287 287 287 286 286 285 284 283 282 281 280 279 278 278 278 278 279 280 280 280 281 281 281 278 274 268 264 262 262 263 263 264
305 307 309 310 312 313 314 314 315 315 316 316 315 314 311 308 305 302 299 296 293 291 290 290 290 290 290 289 288 288 289 293 296 298 298 294 291 290 292 291 291 291 291 288 287 286 288 290 292 292 291 288 287 288 288 287 286 285 285 285 284 283 282 282 281 279 278 278 277 277 277 278 279 280 281 281 280 278 274 268 264 264 264 264 264 264
308 310 311 313 314 315 315 315 316 316 315 315 314 312 310 307 304 300 298 295 293 291 289 289 289 290 289 288 287 286 287 291 294 297 296 293 291 290 291 291 291 291 291 289 286 284 282 285 288 291 290 289 287 287 287 286 285 284 283 283 282 282 282 281 280 279 278 277 276 276 276 276 277 278 279 280 279 277 274 269 266 265 265 265 265 265
311 312 314 315 316 316 316 316 315 314 313 312 311 310 309 306 303 300 299 296 294 292 290 289 289 289 289 289 288 288 289 291 293 295 294 291 289 289 289 290 290 290 290 289 288 285 283 283 285 288 289 289 288 286 285 285 284 283 282 281 281 280 280 280 279 278 277 277 276 275 275 274 275 275 276 276 276 274 271 268 264 262 261 262 263 263
314 315 316 316 317 316 316 315 314 313 311 309 309 308 307 305 303 302 300 298 296 294 292 290 288 287 287 287 287 288 290 292 294 295 294 291 288 288 288 288 288 288 288 288 287 286 284 284 285 285 286 288 287 286 284 284 283 282 281 280 279 279 278 278 278 277 277 277 276 275 274 274 274 274 274 274 273 271 269 266 263 261 259 259 259 260
315 315 315 316 315 315 314 313 313 312 310 308 308 308 307 306 304 302 302 300 299 296 294 293 290 288 287 285 284 285 288 291 295 296 295 292 289 287 286 286 286 287 286 285 285 284 283 284 285 285 285 285 285 285 285 284 283 282 280 280 279 278 277 277 277 277 276 276 275 274 273 274 274 275 275 274 272 270 267 265 264 263 262 260 259 258
314 314 315 315 314 313 312 312 312 311 310 309 308 308 308 307 306 305 305 304 303 302 299 298 296 293 291 288 286 286 289 293 296 297 296 294 291 288 286 286 285 285 283 282 282 282 282 284 284 284 283 282 283 284 286 286 284 282 280 280 279 278 277 276 276 276 275 274 273 273 272 273 274 274 275 275 274 272 268 266 264 264 264 264 262 260
315 314 314 314 314 312 311 311 311 310 310 309 308 308 309 308 309 309 308 308 308 306 304 303 301 297 295 294 292 292 293 295 296 297 296 295 292 289 286 285 284 283 281 280 280 280 280 282 282 282 282 282 282 283 284 285 284 282 281 281 280 278 277 276 275 274 273 272 271 271 271 271 271 272 273 274 274 274 272 268 266 265 265 266 265 264
315 315 313 313 312 312 311 310 310 310 310 309 309 310 310 311 311 311 311 310 308 307 305 304 302 300 298 297 296 295 295 294 295 295 295 293 291 288 286 284 283 283 283 281 280 279 278 278 278 279 280 282 283 283 283 282 281 281 281 281 280 278 276 274 273 272 272 271 270 270 270 269 269 270 271 272 273 273 272 271 268 266 265 265 266 266
315 313 312 311 312 312 311 311 311 311 311 311 312 312 312 312 312 312 311 310 308 306 305 303 301 300 299 298 296 295 295 294 294 294 293 292 290 288 286 284 283 283 283 282 280 278 277 276 276 276 277 279 280 281 282 281 280 280 280 280 278 276 275 274 272 271 271 270 269 269 270 269 269 269 269 270 270 270 270 269 269 267 265 265 265 266
313 312 311 312 313 313 312 312 313 314 314 314 314 313 312 312 311 310 310 309 307 306 305 303 302 300 299 297 296 295 294 294 293 293 292 291 290 289 286 284 283 283 283 282 281 279 277 276 276 277 277 278 279 280 280 280 280 279 278 277 276 276 276 275 273 272 271 270 270 269 269 269 269 269 269 269 269 269 269 268 268 268 267 265 264 264
312 311 312 314 314 314 314 316 316 316 316 315 313 311 311 311 311 310 309 308 307 306 305 303 302 301 299 298 297 296 295 294 294 293 293 292 290 289 287 285 284 284 284 283 281 280 279 278 278 278 278 279 279 279 280 280 279 278 276 275 275 276 276 274 272 271 270 269 269 269 269 269 269 269 269 269 269 269 270 270 270 269 268 267 266 265
311 312 314 315 315 315 316 317 317 316 316 315 313 311 311 312 312 311 309 308 306 306 306 305 303 302 300 299 298 298 296 296 295 294 293 292 291 289 288 287 287 287 286 285 283 282 282 281 279 278 278 278 278 278 278 279 279 277 275 274 273 273 274 272 271 271 269 268 268 267 267 267 268 269 270 270 269 269 270 271 270 269 268 268 267 266
314 314 315 315 315 316 317 316 316 315 315 314 312 311 312 312 312 311 309 306 306 306 306 304 303 302 300 299 299 299 298 298 297 295 294 292 292 291 291 291 290 290 289 286 284 283 283 282 280 278 278 278 277 277 276 277 278 277 276 274 272 270 269 269 270 270 269 267 266 266 266 266 268 269 270 270 269 268 268 268 267 266 265 265 265 266
314 314 315 315 316 316 316 316 316 316 315 314 312 311 312 312 312 311 309 307 306 305 305 304 304 303 301 299 299 299 298 299 298 297 296 295 295 294 294 294 293 292 291 288 286 284 282 281 280 280 280 279 278 276 276 277 277 277 276 275 273 271 270 269 269 268 266 265 264 264 265 266 267 268 269 269 269 268 267 266 264 263 262 262 262 263
314 314 315 316 316 316 316 317 317 316 315 313 312 312 312 313 313 311 310 308 307 305 305 304 303 301 300 300 300 300 299 299 299 299 299 299 298 298 297 296 295 293 291 289 288 286 284 282 282 282 282 281 278 276 275 275 276 275 275 274 273 271 271 270 269 267 266 265 264 265 265 266 266 267 267 269 270 270 269 266 264 263 261 261 261 261
315 315 315 317 317 317 317 317 317 315 314 313 312 313 313 314 313 312 311 309 308 307 306 305 303 301 299 299 299 299 300 300 300 300 300 300 301 300 299 298 297 295 293 291 290 289 287 286 285 283 281 279 277 276 276 275 274 274 273 273 272 271 270 269 268 267 266 265 265 265 265 265 264 264 266 268 270 271 271 269 266 264 262 261 261 261
316 317 317 318 318 318 318 318 317 316 314 313 314 314 314 315 314 313 311 310 308 307 306 305 304 302 300 299 299 299 300 299 300 300 301 301 301 302 301 300 300 298 297 295 293 291 289 288 286 283 280 277 275 275 275 275 274 272 272 272 271 270 269 268 267 266 266 265 264 264 263 262 261 262 264 267 269 270 270 270 267 265 264 263 262 262
320 320 319 320 319 318 318 318 317 316 315 314 314 315 315 315 315 314 311 310 309 307 305 304 303 303 301 300 300 300 300 300 301 301 302 302 302 302 302 302 302 301 299 298 295 293 291 289 287 284 281 277 274 273 274 274 274 273 272 271 270 269 268 267 267 266 265 264 263 263 262 261 260 261 262 264 266 268 269 269 268 266 264 263 262 261
324 323 322 321 319 318 319 318 317 316 316 315 315 315 314 314 314 313 312 311 309 307 305 304 303 302 302 301 301 302 302 302 302 303 303 303 303 303 303 303 303 302 301 299 297 295 293 291 289 286 283 279 275 273 273 273 273 273 271 269 268 267 266 266 266 265 263 261 260 260 260 259 259 259 260 261 263 266 268 269 268 267 264 262 260 258
325 325 324 322 321 320 319 319 318 317 316 316 315 315 314 314 313 313 312 311 309 308 306 304 303 302 301 301 302 303 303 303 303 303 303 304 304 304 304 304 303 302 301 299 298 296 295 293 290 288 285 281 277 274 272 272 272 272 270 268 267 266 265 265 265 264 262 260 258 257 256 256 256 256 257 257 259 262 265 267 267 266 261 258 256 255
Height
1461 1461 1460 1459 1459 1457 1456 1456 1456 1454 1453 1452 1451 1451 1450 1449 1448 1447 1446 1446 1444 1443 1442 1441 1439 1438 1437 1436 1436 1435 1434 1434 1433 1432 1431 1430 1429 1428 1427 1426 1425 1424 1423 1422 1421 1420 1419 1418 1417 1417 1416 1415 1415 1414 1414 1414 1413 1412 1412 1411 1410 1410 1409 1409 1408 1408 1408 1407 1407 1407 1407 1407 1408 1408 1409 1409 1410 1411 1411 1412 1413 1414 1414 1415 1415 1416
1459 1458 1457 1457 1456 1455 1454 1454 1453 1453 1451 1450 1449 1448 1447 1446 1445 1444 1443 1442 1441 1440 1439 1437 1436 1435 1434 1434 1433 1432 1432 1431 1430 1429 1428 1427 1426 1426 1425 1424 1422 1421 1421 1420 1419 1418 1417 1416 1415 1414 1413 1412 1411 1411 1410 1410 1410 1409 1409 1408 1407 1407 1406 1406 1405 1405 1404 1404 1404 1404 1404 1404 1404 1404 1405 1405 1406 1406 1407 1408 1409 1410 1411 1411 1412 1413
1456 1456 1455 1454 1454 1453 1452 1451 1451 1450 1449 1448 1447 1446 1445 1444 1442 1441 1440 1439 1438 1437 1436 1435 1434 1433 1431 1431 1430 1430 1429 1428 1427 1426 1426 1425 1424 1423 1422 1421 1420 1419 1418 1417 1416 1415 1414 1413 1412 1411 1411 1410 1409 1408 1407 1407 1406 1406 1405 1405 1404 1404 1403 1402 1402 1401 1401 1401 1400 1400 1400 1400 1400 1401 1401 1401 1402 1403 1403 1404 1405 1406 1406 1407 1408 1409
1456 1454 1453 1453 1452 1451 1450 1449 1448 1448 1447 1446 1445 1444 1443 1441 1440 1438 1437 1436 1435 1434 1433 1432 1432 1431 1429 1428 1428 1427 1426 1426 1425 1424 1423 1422 1421 1421 1420 1418 1417 1416 1416 1415 1413 1412 1411 1411 1410 1409 1408 1407 1406 1405 1405 1404 1403 1402 1402 1401 1401 1401 1400 1399 1399 1398 1398 1397 1397 1396 1396 1396 1396 1397 1397 1397 1398 1398 1399 1400 1401 1401 1402 1403 1404 1405
1455 1454 1452 1451 1451 1449 1448 1448 1447 1446 1444 1443 1442 1441 1440 1439 1437 1436 1435 1434 1433 1432 1431 1430 1430 1429 1427 1426 1425 1425 1424 1423 1422 1422 1421 1420 1419 1418 1417 1416 1415 1414 1413 1411 1411 1410 1408 1407 1406 1406 1405 1404 1403 1402 1401 1401 1400 1400 1399 1398 1398 1397 1397 1396 1396 1395 1394 1394 1393 1393 1393 1393 1393 1393 1393 1393 1394 1394 1395 1396 1396 1397 1398 1399 1400 1401
1454 1453 1452 1451 1450 1448 1446 1446 1445 1444 1442 1441 1440 1439 1438 1437 1436 1434 1433 1432 1431 1430 1429 1428 1427 1426 1426 1425 1423 1423 1422 1421 1421 1420 1419 1417 1416 1415 1414 1413 1412 1411 1410 1408 1407 1406 1405 1404 1403 1402 1401 1401 1400 1399 1398 1398 1397 1396 1396 1396 1395 1394 1394 1393 1392 1392 1391 1391 1390 1390 1389 1389 1389 1389 1389 1390 1390 1390 1391 1391 1392 1393 1394 1395 1396 1396
1452 1451 1451 1450 1448 1447 1446 1444 1443 1442 1441 1440 1438 1436 1436 1435 1434 1433 1432 1431 1430 1428 1427 1426 1425 1424 1424 1423 1422 1421 1420 1419 1418 1417 1416 1415 1413 1412 1411 1410 1409 1407 1406 1405 1404 1403 1402 1401 1400 1399 1398 1397 1396 1396 1395 1394 1394 1393 1392 1392 1392 1391 1391 1390 1389 1389 1388 1387 1387 1386 1386 1386 1386 1385 1385 1386 1386 1386 1387 1387 1388 1389 1390 1390 1391 1392
1451 1450 1449 1448 1447 1445 1444 1443 1442 1442 1441 1439 1437 1435 1434 1433 1432 1431 1430 1429 1428 1427 1425 1424 1423 1422 1422 1421 1420 1419 1418 1416 1415 1414 1412 1411 1410 1409 1407 1406 1405 1404 1403 1402 1401 1400 1399 1397 1396 1396 1395 1394 1393 1392 1391 1391 1390 1389 1389 1388 1388 1387 1387 1387 1386 1386 1385 1384 1384 1383 1383 1382 1382 1382 1382 1382 1382 1382 1383 1384 1384 1385 1386 1386 1387 1388
1450 1448 1447 1447 1446 1444 1442 1441 1441 1441 1440 1439 1437 1435 1433 1431 1429 1428 1427 1427 1426 1426 1424 1423 1421 1419 1419 1418 1418 1416 1415 1413 1412 1411 1409 1407 1406 1405 1404 1403 1401 1400 1399 1398 1397 1396 1395 1394 1393 1392 1391 1390 1389 1388 1388 1387 1386 1386 1385 1384 1384 1384 1383 1383 1382 1382 1381 1381 1380 1380 1380 1379 1379 1379 1378 1378 1378 1378 1379 1380 1380 1381 1381 1382 1383 1384
1449 1448 1446 1445 1445 1444 1442 1440 1438 1438 1439 1438 1436 1435 1433 1431 1429 1426 1425 1424 1423 1423 1423 1421 1419 1417 1415 1414 1414 1413 1411 1410 1408 1407 1406 1405 1403 1402 1401 1399 1398 1396 1395 1394 1393 1392 1391 1390 1389 1388 1387 1386 1386 1385 1384 1383 1383 1382 1381 1381 1381 1380 1380 1379 1379 1378 1378 1378 1377 1377 1376 1376 1376 1376 1375 1375 1375 1375 1375 1376 1376 1377 1377 1378 1379 1379
1448 1447 1446 1444 1443 1442 1442 1440 1438 1437 1437 1436 1434 1433 1432 1431 1430 1427 1424 1421 1420 1420 1420 1419 1417 1415 1413 1411 1410 1409 1408 1406 1405 1403 1402 1401 1400 1399 1397 1396 1394 1393 1391 1391 1389 1388 1387 1386 1386 1385 1384 1383 1382 1381 1381 1380 1380 1379 1378 1378 1377 1376 1376 1376 1375 1375 1374 1374 1374 1374 1373 1373 1373 1372 1372 1372 1372 1372 1372 1372 1372 1373 1373 1374 1375 1375
1447 1446 1445 1443 1442 1441 1440 1438 1437 1436 1435 1434 1433 1431 1430 1430 1429 1428 1424 1421 1418 1417 1416 1414 1413 1413 1411 1409 1407 1406 1405 1403 1401 1400 1398 1397 1396 1395 1394 1392 1391 1389 1388 1387 1386 1385 1384 1383 1382 1381 1381 1379 1379 1378 1377 1377 1376 1376 1375 1374 1374 1373 1373 1372 1372 1371 1371 1371 1371 1370 1370 1370 1370 1369 1369 1369 1369 1369 1369 1369 1369 1369 1369 1370 1371 1371
1447 1446 1444 1443 1441 1440 1439 1437 1436 1435 1434 1434 1432 1430 1428 1427 1427 1426 1423 1420 1417 1416 1414 1411 1409 1408 1408 1408 1406 1404 1402 1400 1398 1397 1396 1394 1393 1392 1391 1389 1387 1386 1385 1384 1382 1381 1381 1380 1379 1378 1377 1376 1375 1374 1374 1373 1372 1372 1371 1371 1370 1369 1369 1368 1368 1367 1367 1367 1367 1366 1366 1366 1366 1366 1366 1365 1365 1365 1365 1365 1365 1365 1366 1366 1366 1367
1446 1445 1443 1441 1440 1439 1438 1437 1436 1434 1433 1432 1431 1430 1428 1426 1425 1424 1421 1418 1416 1414 1413 1410 1407 1405 1405 1405 1404 1403 1401 1398 1396 1394 1392 1391 1391 1391 1389 1387 1385 1384 1383 1381 1379 1377 1377 1376 1375 1374 1373 1372 1371 1371 1370 1369 1369 1368 1367 1366 1366 1365 1365 1364 1364 1363 1363 1363 1363 1362 1362 1362 1362 1362 1361 1361 1361 1361 1361 1361 1361 1362 1362 1362 1362 1363
1445 1444 1442 1440 1439 1438 1437 1436 1435 1433 1432 1431 1430 1428 1426 1425 1423 1422 1420 1417 1414 1412 1411 1408 1405 1402 1402 1402 1402 1401 1400 1397 1395 1392 1390 1388 1388 1389 1388 1385 1382 1380 1380 1378 1375 1374 1373 1373 1372 1370 1369 1368 1367 1367 1366 1366 1365 1364 1363 1363 1362 1361 1361 1360 1359 1359 1359 1358 1358 1358 1358 1358 1358 1358 1358 1358 1357 1357 1357 1357 1358 1358 1358 1358 1359 1359
1444 1443 1441 1439 1438 1436 1436 1435 1434 1432 1430 1429 1428 1427 1426 1423 1422 1421 1419 1416 1413 1411 1410 1406 1402 1399 1396 1398 1400 1400 1399 1396 1393 1391 1388 1385 1384 1385 1386 1383 1380 1376 1375 1374 1372 1371 1370 1369 1368 1366 1365 1364 1364 1363 1363 1362 1361 1361 1360 1359 1358 1357 1356 1356 1355 1355 1354 1354 1353 1353 1353 1353 1353 1353 1353 1353 1354 1354 1354 1354 1354 1354 1354 1354 1355 1355
1443 1442 1440 1439 1437 1435 1435 1434 1433 1431 1430 1428 1427 1426 1425 1423 1421 1419 1418 1416 1413 1411 1408 1406 1403 1399 1394 1392 1394 1397 1398 1396 1392 1389 1386 1382 1380 1381 1383 1381 1377 1373 1371 1370 1369 1367 1366 1365 1364 1363 1362 1361 1360 1360 1359 1358 1357 1357 1356 1355 1354 1353 1352 1352 1351 1351 1350 1349 1349 1348 1348 1348 1348 1348 1348 1349 1349 1349 1350 1350 1350 1350 1350 1351 1351 1351
1442 1441 1440 1438 1436 1434 1433 1432 1431 1430 1428 1427 1425 1424 1422 1421 1420 1418 1416 1414 1412 1410 1407 1405 1403 1400 1396 1391 1390 1393 1396 1394 1391 1386 1383 1379 1377 1377 1379 1378 1375 1371 1368 1366 1364 1364 1363 1362 1361 1359 1358 1357 1357 1356 1356 1355 1354 1353 1352 1351 1350 1350 1349 1348 1347 1346 1346 1345 1345 1344 1344 1343 1343 1343 1343 1344 1344 1345 1345 1345 1346 1346 1346 1346 1347 1347
1441 1440 1439 1437 1435 1433 1432 1431 1430 1428 1427 1425 1424 1422 1420 1418 1417 1416 1414 1413 1411 1409 1406 1404 1401 1398 1396 1392 1389 1389 1393 1392 1389 1385 1381 1377 1373 1372 1375 1375 1372 1368 1365 1362 1361 1361 1360 1359 1357 1356 1355 1354 1354 1353 1352 1351 1350 1350 1349 1348 1347 1346 1345 1344 1343 1342 1342 1341 1341 1340 1340 1339 1339 1339 1339 1339 1339 1339 1340 1341 1341 1341 1342 1342 1343 1343
1439 1438 1437 1436 1433 1431 1429 1428 1428 1427 1426 1424 1422 1420 1418 1416 1415 1414 1412 1411 1409 1407 1405 1402 1399 1396 1394 1390 1387 1387 1390 1390 1387 1383 1379 1375 1370 1368 1371 1371 1369 1365 1361 1359 1358 1358 1357 1356 1354 1352 1352 1351 1350 1349 1349 1348 1347 1346 1345 1344 1343 1342 1341 1340 1340 1339 1338 1337 1337 1336 1336 1335 1335 1335 1335 1334 1335 1335 1335 1336 1336 1337 1337 1338 1338 1339
1436 1434 1434 1433 1432 1430 1427 1425 1425 1425 1424 1422 1420 1418 1416 1414 1412 1411 1410 1409 1407 1405 1403 1400 1397 1394 1392 1389 1386 1385 1387 1388 1386 1381 1377 1372 1367 1366 1367 1368 1366 1362 1358 1355 1355 1355 1355 1353 1351 1349 1348 1347 1347 1346 1345 1344 1344 1343 1342 1341 1340 1339 1338 1337 1336 1335 1335 1334 1333 1333 1332 1331 1331 1331 1331 1331 1330 1331 1331 1331 1331 1332 1333 1333 1334 1335
1434 1431 1431 1431 1430 1428 1426 1423 1422 1422 1421 1421 1419 1417 1415 1413 1411 1409 1407 1406 1405 1402 1400 1397 1394 1391 1390 1387 1384 1383 1385 1386 1384 1381 1376 1370 1364 1362 1364 1366 1364 1360 1356 1352 1351 1351 1351 1350 1347 1346 1345 1344 1343 1343 1342 1341 1340 1339 1338 1337 1336 1335 1334 1333 1332 1331 1331 1330 1330 1329 1328 1328 1327 1327 1327 1326 1326 1326 1327 1327 1327 1328 1328 1329 1330 1330
1432 1430 1428 1428 1427 1426 1424 1422 1421 1420 1420 1419 1417 1416 1414 1412 1410 1407 1406 1404 1402 1400 1397 1394 1391 1389 1387 1385 1382 1381 1382 1383 1382 1379 1376 1370 1362 1359 1361 1362 1361 1356 1352 1350 1349 1348 1347 1346 1344 1342 1341 1341 1340 1339 1338 1337 1336 1336 1334 1333 1332 1331 1330 1329 1328 1328 1327 1326 1326 1325 1324 1324 1323 1323 1323 1323 1323 1323 1323 1323 1323 1323 1324 1325 1325 1326
1430 1428 1427 1426 1425 1424 1423 1421 1420 1419 1418 1417 1416 1414 1412 1411 1409 1407 1405 1403 1401 1398 1395 1392 1388 1385 1383 1382 1381 1379 1379 1380 1380 1377 1374 1368 1362 1358 1358 1359 1357 1353 1349 1347 1347 1346 1343 1341 1340 1339 1338 1336 1336 1335 1334 1333 1332 1331 1331 1330 1328 1327 1326 1326 1325 1324 1323 1322 1322 1321 1321 1320 1320 1319 1319 1319 1319 1319 1319 1319 1319 1320 1320 1320 1321 1321
1429 1427 1426 1424 1423 1422 1421 1420 1419 1418 1417 1416 1414 1412 1411 1409 1407 1405 1403 1401 1399 1396 1394 1391 1387 1383 1380 1379 1377 1376 1376 1377 1377 1375 1372 1366 1361 1356 1355 1356 1355 1351 1346 1344 1343 1343 1341 1337 1335 1334 1334 1333 1332 1331 1330 1329 1329 1328 1326 1326 1325 1324 1323 1322 1321 1320 1319 1319 1318 1317 1316 1316 1316 1315 1315 1315 1315 1315 1315 1315 1315 1316 1316 1316 1317 1317
1427 1425 1424 1423 1422 1421 1420 1419 1417 1416 1416 1415 1413 1411 1409 1407 1405 1402 1400 1398 1396 1394 1392 1388 1385 1381 1378 1377 1375 1373 1372 1373 1374 1373 1371 1366 1359 1354 1352 1353 1353 1349 1343 1340 1340 1339 1337 1334 1331 1331 1330 1329 1328 1327 1326 1326 1325 1324 1323 1321 1321 1320 1319 1318 1317 1316 1316 1315 1314 1313 1312 1312 1312 1311 1311 1311 1311 1311 1311 1311 1311 1311 1312 1312 1313 1313
1424 1423 1421 1420 1419 1418 1417 1416 1415 1414 1413 1412 1411 1410 1408 1405 1402 1399 1397 1395 1394 1393 1391 1387 1383 1379 1376 1375 1372 1370 1370 1370 1370 1370 1368 1365 1359 1353 1349 1350 1350 1347 1342 1338 1336 1336 1334 1331 1329 1327 1326 1325 1324 1323 1322 1321 1321 1320 1319 1318 1317 1316 1315 1314 1313 1313 1312 1311 1310 1309 1309 1308 1308 1308 1307 1307 1307 1307 1307 1307 1307 1308 1308 1309 1309 1309
1421 1420 1419 1417 1416 1415 1414 1413 1412 1411 1410 1409 1408 1407 1406 1404 1401 1398 1395 1393 1393 1391 1389 1386 1382 1378 1375 1372 1370 1367 1367 1367 1367 1366 1366 1363 1357 1351 1348 1347 1347 1345 1341 1336 1333 1332 1331 1328 1326 1324 1323 1321 1321 1320 1318 1318 1317 1316 1315 1314 1313 1312 1311 1311 1310 1309 1308 1307 1306 1306 1305 1305 1304 1304 1304 1303 1303 1303 1303 1303 1304 1304 1305 1305 1305 1305
1418 1417 1416 1415 1414 1412 1411 1410 1409 1407 1406 1406 1405 1404 1403 1402 1400 1396 1393 1392 1391 1389 1386 1384 1381 1378 1374 1371 1367 1365 1364 1364 1364 1364 1363 1361 1355 1350 1347 1346 1345 1343 1341 1336 1330 1326 1325 1324 1323 1322 1320 1318 1317 1316 1315 1315 1314 1313 1312 1311 1310 1309 1308 1307 1306 1306 1305 1304 1303 1302 1301 1301 1301 1300 1300 1300 1299 1299 1299 1300 1300 1301 1301 1301 1301 1301
1415 1414 1413 1412 1411 1410 1408 1407 1405 1404 1403 1402 1401 1401 1400 1399 1397 1395 1392 1391 1390 1387 1384 1381 1379 1377 1374 1370 1366 1362 1360 1360 1362 1363 1362 1358 1353 1348 1346 1344 1342 1341 1340 1336 1329 1322 1318 1317 1319 1320 1318 1316 1314 1313 1312 1311 1311 1310 1308 1307 1306 1305 1305 1304 1303 1302 1301 1300 1300 1299 1298 1297 1297 1297 1296 1296 1296 1296 1296 1296 1296 1297 1297 1297 1297 1297
1413 1411 1410 1408 1407 1406 1405 1404 1402 1401 1400 1399 1398 1397 1396 1395 1394 1392 1391 1389 1388 1386 1383 1380 1377 1375 1373 1371 1367 1361 1356 1355 1358 1361 1360 1356 1351 1346 1345 1342 1339 1337 1338 1337 1331 1323 1314 1310 1311 1315 1316 1314 1311 1310 1309 1308 1307 1306 1305 1303 1302 1301 1300 1300 1300 1298 1297 1297 1296 1295 1294 1294 1293 1293 1293 1292 1292 1292 1292 1293 1293 1294 1293 1293 1293 1293
1410 1409 1407 1406 1405 1403 1402 1401 1399 1398 1397 1396 1395 1394 1393 1392 1391 1390 1389 1387 1386 1384 1381 1378 1376 1373 1372 1370 1366 1361 1356 1353 1355 1357 1358 1354 1348 1343 1343 1341 1337 1334 1334 1334 1332 1326 1318 1309 1306 1308 1311 1311 1309 1306 1305 1305 1304 1302 1301 1300 1298 1297 1296 1296 1296 1295 1294 1293 1292 1291 1291 1291 1290 1289 1289 1289 1289 1289 1289 1289 1290 1290 1290 1290 1290 1289
1408 1406 1405 1403 1402 1401 1400 1398 1397 1396 1394 1393 1392 1391 1390 1389 1389 1387 1386 1385 1384 1382 1380 1377 1374 1371 1369 1366 1363 1359 1355 1353 1353 1354 1355 1352 1347 1342 1339 1338 1335 1332 1330 1329 1328 1325 1320 1312 1306 1304 1305 1305 1305 1304 1302 1301 1300 1299 1298 1297 1295 1294 1293 1293 1293 1291 1291 1290 1289 1288 1287 1287 1286 1286 1286 1285 1285 1286 1286 1286 1286 1287 1287 1287 1286 1286
1406 1404 1403 1401 1400 1398 1397 1396 1395 1393 1392 1391 1390 1389 1388 1387 1386 1385 1384 1382 1381 1380 1378 1376 1373 1370 1366 1363 1360 1356 1352 1351 1351 1352 1352 1350 1345 1340 1336 1334 1332 1330 1327 1325 1323 1320 1316 1311 1308 1304 1301 1300 1300 1300 1300 1298 1297 1296 1295 1294 1292 1291 1290 1290 1289 1288 1287 1287 1286 1285 1284 1283 1283 1282 1282 1282 1282 1282 1282 1283 1283 1284 1284 1284 1284 1284
1403 1402 1401 1399 1398 1396 1395 1394 1392 1391 1390 1389 1388 1386 1386 1384 1383 1382 1381 1379 1378 1376 1375 1373 1371 1368 1366 1362 1357 1353 1349 1347 1347 1349 1349 1347 1343 1338 1334 1331 1329 1327 1325 1321 1319 1316 1312 1308 1306 1304 1301 1296 1294 1294 1296 1295 1294 1292 1291 1290 1289 1288 1287 1286 1286 1286 1284 1284 1282 1281 1281 1280 1280 1279 1279 1278 1278 1279 1279 1279 1280 1280 1281 1281 1281 1281
1401 1400 1398 1397 1396 1394 1393 1391 1391 1389 1388 1386 1385 1384 1383 1381 1380 1379 1377 1376 1374 1373 1371 1369 1367 1366 1363 1360 1356 1351 1346 1343 1343 1344 1344 1343 1341 1337 1332 1328 1326 1325 1322 1318 1315 1313 1310 1305 1302 1301 1300 1296 1291 1289 1290 1291 1291 1289 1287 1286 1286 1285 1284 1283 1283 1283 1281 1281 1279 1278 1278 1277 1276 1276 1275 1275 1275 1275 1275 1275 1276 1276 1276 1277 1277 1278
1400 1398 1397 1396 1395 1393 1391 1390 1388 1387 1386 1384 1383 1381 1380 1379 1377 1375 1373 1372 1370 1368 1366 1365 1362 1361 1359 1356 1353 1349 1344 1341 1339 1339 1339 1338 1337 1334 1330 1324 1322 1321 1321 1316 1312 1309 1306 1302 1298 1296 1295 1293 1290 1287 1286 1286 1286 1286 1284 1283 1282 1281 1281 1280 1280 1280 1279 1277 1276 1275 1275 1274 1274 1273 1272 1271 1271 1271 1271 1271 1272 1272 1272 1272 1273 1273
1398 1396 1395 1394 1393 1391 1390 1388 1386 1385 1384 1382 1380 1378 1377 1375 1373 1371 1369 1367 1366 1364 1362 1359 1357 1355 1353 1351 1348 1345 1341 1338 1336 1334 1333 1333 1332 1330 1326 1321 1318 1317 1316 1314 1311 1307 1304 1301 1296 1292 1290 1288 1287 1286 1284 1283 1282 1281 1280 1279 1279 1278 1277 1276 1276 1276 1275 1274 1273 1272 1271 1271 1270 1270 1269 1269 1268 1268 1267 1267 1267 1268 1268 1269 1269 1269
1397 1395 1394 1392 1391 1390 1388 1386 1385 1383 1381 1380 1378 1376 1374 1371 1370 1367 1366 1364 1362 1360 1358 1355 1353 1350 1347 1345 1343 1341 1338 1335 1332 1331 1329 1328 1327 1326 1323 1318 1314 1312 1311 1310 1308 1306 1302 1298 1294 1291 1287 1285 1282 1281 1281 1281 1279 1278 1276 1275 1274 1273 1273 1273 1272 1272 1271 1270 1270 1269 1268 1267 1267 1267 1266 1265 1265 1265 1264 1264 1264 1264 1265 1265 1265 1265
1396 1394 1392 1391 1390 1388 1387 1385 1383 1381 1379 1377 1375 1373 1371 1369 1366 1364 1362 1361 1359 1357 1354 1352 1350 1346 1343 1341 1339 1336 1334 1332 1329 1327 1326 1324 1322 1321 1319 1316 1312 1309 1307 1306 1304 1302 1299 1296 1291 1288 1286 1283 1280 1277 1276 1275 1275 1275 1274 1272 1270 1268 1268 1269 1269 1268 1267 1267 1266 1265 1264 1264 1263 1263 1262 1262 1261 1261 1261 1260 1260 1261 1261 1262 1262 1261
1394 1392 1391 1389 1388 1386 1385 1382 1381 1379 1377 1375 1372 1370 1368 1366 1364 1362 1359 1357 1355 1353 1351 1349 1346 1343 1339 1337 1335 1333 1330 1328 1326 1324 1322 1320 1318 1316 1315 1312 1309 1306 1305 1302 1300 1298 1296 1293 1289 1286 1283 1281 1278 1275 1273 1271 1271 1271 1271 1269 1266 1264 1264 1264 1265 1264 1264 1263 1262 1261 1261 1260 1260 1259 1259 1258 1258 1257 1257 1257 1257 1257 1258 1258 1259 1258
1393 1391 1389 1387 1386 1384 1382 1380 1378 1376 1375 1373 1371 1369 1366 1365 1362 1360 1357 1355 1352 1350 1348 1346 1343 1339 1335 1332 1330 1328 1326 1324 1322 1320 1318 1316 1314 1312 1311 1309 1306 1304 1302 1299 1296 1294 1292 1290 1287 1284 1281 1279 1276 1273 1269 1267 1267 1267 1267 1265 1263 1261 1260 1259 1260 1260 1260 1259 1258 1258 1257 1257 1256 1255 1255 1255 1254 1253 1253 1254 1254 1254 1254 1254 1255 1255
1391 1389 1387 1385 1384 1381 1380 1378 1376 1374 1373 1371 1369 1366 1365 1363 1361 1359 1356 1353 1350 1347 1345 1343 1340 1337 1332 1328 1325 1323 1321 1320 1318 1316 1314 1312 1311 1309 1307 1305 1303 1301 1300 1297 1293 1289 1287 1286 1284 1281 1278 1276 1274 1270 1266 1263 1262 1263 1262 1262 1261 1260 1257 1254 1255 1256 1256 1255 1255 1254 1254 1253 1253 1252 1252 1251 1251 1250 1250 1250 1250 1250 1250 1250 1251 1251
1389 1387 1385 1384 1382 1380 1378 1376 1374 1372 1371 1369 1366 1364 1362 1361 1359 1357 1354 1351 1348 1345 1342 1340 1337 1334 1330 1325 1321 1318 1316 1314 1313 1312 1311 1309 1307 1306 1304 1301 1299 1298 1296 1294 1290 1286 1283 1281 1278 1276 1275 1273 1270 1267 1263 1261 1259 1258 1258 1258 1258 1256 1253 1251 1251 1252 1252 1252 1251 1251 1250 1250 1250 1249 1249 1248 1247 1247 1247 1246 1246 1246 1246 1246 1247 1247
1387 1386 1384 1382 1380 1378 1376 1374 1372 1371 1369 1367 1365 1362 1360 1358 1357 1355 1352 1349 1346 1342 1340 1338 1335 1331 1326 1322 1319 1315 1312 1310 1309 1308 1306 1305 1304 1302 1300 1298 1296 1293 1291 1289 1287 1284 1281 1277 1274 1271 1271 1269 1267 1264 1260 1258 1256 1255 1254 1254 1253 1252 1250 1248 1248 1248 1248 1247 1247 1247 1247 1247 1247 1247 1245 1244 1243 1243 1243 1243 1243 1242 1242 1242 1243 1242
1386 1384 1382 1380 1379 1377 1375 1373 1371 1369 1366 1365 1362 1360 1358 1356 1355 1352 1350 1347 1344 1341 1337 1336 1333 1329 1324 1320 1316 1313 1309 1306 1304 1303 1302 1301 1299 1298 1296 1294 1292 1289 1287 1284 1282 1280 1277 1274 1271 1268 1267 1265 1262 1259 1257 1255 1254 1252 1250 1250 1249 1248 1246 1245 1245 1244 1244 1244 1243 1243 1243 1244 1245 1244 1242 1241 1240 1239 1239 1239 1239 1239 1238 1238 1238 1238
1385 1383 1381 1379 1377 1375 1373 1371 1369 1367 1365 1362 1360 1358 1356 1354 1352 1350 1348 1345 1342 1339 1335 1332 1330 1327 1322 1318 1314 1311 1307 1303 1300 1298 1297 1296 1294 1293 1291 1290 1287 1285 1283 1280 1277 1275 1272 1270 1268 1266 1264 1261 1257 1254 1252 1252 1251 1249 1247 1246 1245 1244 1243 1241 1240 1240 1240 1240 1240 1240 1240 1241 1241 1240 1239 1238 1236 1235 1234 1234 1234 1234 1235 1235 1235 1234
1383 1381 1379 1377 1375 1373 1371 1369 1367 1366 1363 1360 1357 1355 1353 1352 1350 1348 1345 1342 1339 1336 1333 1330 1326 1323 1319 1315 1312 1309 1306 1302 1298 1296 1293 1291 1290 1288 1286 1284 1282 1280 1278 1275 1273 1270 1267 1265 1263 1262 1260 1258 1254 1250 1247 1247 1246 1245 1244 1243 1241 1240 1239 1237 1237 1237 1237 1237 1236 1236 1237 1238 1237 1236 1236 1235 1234 1232 1231 1230 1230 1230 1230 1231 1231 1230
1381 1380 1378 1376 1374 1371 1369 1367 1366 1364 1361 1358 1355 1352 1351 1349 1348 1346 1342 1339 1336 1333 1331 1327 1323 1320 1316 1312 1309 1306 1304 1300 1297 1294 1291 1289 1286 1284 1282 1280 1278 1275 1273 1270 1268 1265 1263 1260 1258 1257 1255 1254 1251 1247 1244 1242 1241 1241 1240 1239 1238 1237 1235 1234 1234 1234 1234 1233 1233 1233 1234 1234 1234 1234 1234 1233 1231 1229 1227 1226 1226 1226 1226 1227 1227 1227
1380 1378 1377 1375 1373 1371 1368 1366 1364 1361 1359 1356 1353 1350 1347 1345 1343 1341 1340 1337 1334 1331 1328 1325 1321 1317 1313 1309 1306 1303 1301 1298 1294 1291 1288 1286 1284 1281 1279 1276 1275 1272 1269 1266 1263 1261 1259 1255 1252 1250 1250 1249 1248 1245 1241 1239 1237 1237 1236 1235 1234 1233 1232 1231 1230 1230 1230 1230 1230 1230 1230 1230 1230 1230 1231 1230 1228 1226 1225 1223 1222 1222 1222 1223 1224 1224
1378 1377 1375 1373 1371 1369 1367 1365 1362 1360 1357 1355 1352 1349 1346 1343 1340 1338 1336 1334 1331 1328 1325 1322 1318 1315 1311 1306 1303 1301 1298 1296 1292 1288 1285 1283 1281 1279 1276 1274 1271 1269 1266 1262 1259 1257 1255 1251 1247 1245 1244 1244 1244 1242 1240 1237 1235 1234 1232 1231 1230 1230 1229 1228 1227 1226 1226 1226 1226 1226 1227 1227 1227 1227 1228 1227 1226 1225 1222 1220 1219 1218 1218 1220 1220 1220